Home   Weather   Oberpullendorf   Past weeks

Flag for Austria Past Weather in Oberpullendorf, Burgenland, Austria — Yesterday and Last 2 Weeks

Now
23 °F

Fog.


Feels Like: 17 °F
Forecast: 15 / 23 °F
Wind: 5 mph from East

Location: Eisenstadt

Current Time: Jan 22, 2017 at 11:21:47 am

Latest Report: Jan 22, 2017 at 10:00 am


Visibility: 1 mi

Pressure: 30.55 "Hg

Humidity: 81%

Dew Point: 18 °F

Location of OberpullendorfLocation

Past Weather in Oberpullendorf — Graph

°F

Oberpullendorf Temperature Yesterday

Maximum temperature yesterday: 28 °F (at 4:00 pm)
Minimum temperature yesterday: 14 °F (at 6:00 am)
Average temperature yesterday: 20 °F

High & Low Weather Summary for the Past Weeks

 TemperatureHumidityPressure
High44 °F (Jan 12, 2:00 pm)94% (Jan 13, 10:00 am)30.70 "Hg (Jan 13, 10:00 am)
Low7 °F (Jan 11, 5:00 am)39% (Jan 7, 3:00 pm)29.44 "Hg (Jan 13, 6:00 am)
Average26 °F72%30.25 "Hg
* Reported Jan 7 9:00 am — Jan 22 9:00 am, Oberpullendorf, Weather by CustomWeather, © 2017

Note: Actual official high and low records may vary slightly from our data, if they occured in-between our weather recording intervals... More about our weather records

Advertising

Oberpullendorf Weather History for the Previous 24 Hours

Scroll right to see more
 ConditionsComfort  
Time TempWeatherWind HumidityBarometerVisibility
9:00 am
Sun, Jan 22
20 °FCold.3 mph87%30.56 "HgN/A
8:00 am19 °FCold.3 mph89%30.56 "HgN/A
7:00 am19 °FFog.3 mph89%30.55 "Hg1 mi
6:00 am19 °FFog.5 mph88%30.55 "Hg1 mi
5:00 am20 °FCold.5 mph87%30.55 "HgN/A
4:00 am20 °FFog.5 mph86%30.56 "Hg2 mi
3:00 am21 °FCold.5 mph85%30.55 "HgN/A
2:00 am21 °FCold.5 mph83%30.55 "HgN/A
1:00 am22 °FFog.3 mph82%30.55 "Hg2 mi
12:00 am23 °FCold.5 mph81%30.56 "HgN/A
11:00 pm
Sat, Jan 21
24 °FCold.3 mph79%30.55 "HgN/A
10:00 pm24 °FFog.3 mph82%30.54 "Hg2 mi
9:00 pm22 °FCold.2 mph83%30.55 "HgN/A
8:00 pm22 °FCold.2 mph83%30.54 "HgN/A
7:00 pm23 °FFog.3 mph81%30.53 "Hg2 mi
6:00 pm24 °FCold.2 mph80%30.53 "HgN/A
5:00 pm26 °FChilly.1 mph75%30.53 "HgN/A
4:00 pm28 °FSunny.1 mph69%30.53 "Hg6 mi
3:00 pm27 °FChilly.2 mph70%30.53 "HgN/A
2:00 pm26 °FChilly.2 mph73%30.53 "HgN/A
1:00 pm24 °FSunny.3 mph74%30.54 "Hg6 mi
12:00 pm22 °FCold.1 mph78%30.56 "HgN/A
11:00 am21 °FCold.1 mph80%30.59 "HgN/A
Weather by CustomWeather, © 2017

See weather overviewHow to use our weather pages